[Iaude] MPEC C69: 2024 CA1 [a=1.90,e=0.47,i=7.4,H=24.1]

mpec at cfa.harvard.edu mpec at cfa.harvard.edu
Tue Feb 6 20:57:59 EST 2024


M.P.E.C. 2024-C69                              Issued 2024 February 7, 01:56 UT

     The Minor Planet Electronic Circulars contain information on unusual
         minor planets, routine data on comets and natural satellites,
         and occasional editorial announcements.  They are published
    on behalf of Division F of the International Astronomical Union by the
          Minor Planet Center, Smithsonian Astrophysical Observatory,
                          Cambridge, MA 02138, U.S.A.
			  
             Prepared using the Tamkin Foundation Computer Network

                              MPC at CFA.HARVARD.EDU
            URL https://www.minorplanetcenter.net/    ISSN 1523-6714

                                    2024 CA1                                    


Observations:
     K24C01A* C2024 02 05.19851104 43 18.811+32 06 48.60         21.42GVEC069V00
     K24C01A  C2024 02 05.20351904 43 22.440+32 07 19.81         21.45GVEC069V00
     K24C01A  C2024 02 05.20841904 43 25.950+32 07 50.27         21.24GVEC069V00
     K24C01A  C2024 02 05.21331204 43 29.500+32 08 20.94         21.28GVEC069V00
     K24C01A KC2024 02 05.28713604 44 23.160+32 15 53.80         21.35GVEC069V06
     K24C01A KC2024 02 05.28978404 44 25.100+32 16 09.90         20.34GVEC069V06
     K24C01A KC2024 02 05.29243204 44 27.040+32 16 26.10         21.12GVEC069V06
     K24C01A KC2024 02 05.29508304 44 29.000+32 16 42.30         20.97GVEC069V06
     K24C01A 1C2024 02 05.86454 04 51 45.30 +33 15 13.6          20.8 VXEC069033
     K24C01A 1C2024 02 05.86599 04 51 46.36 +33 15 22.2          20.8 VXEC069033
     K24C01A 1C2024 02 05.86744 04 51 47.43 +33 15 31.1          21.1 VXEC069033
     K24C01A KC2024 02 06.04412804 54 06.12 +33 33 36.4          21.1 GVEC069H21
     K24C01A KC2024 02 06.05139604 54 11.50 +33 34 19.9          21.6 GVEC069H21
     K24C01A KC2024 02 06.05530904 54 14.40 +33 34 43.4          21.3 GVEC069H21
     K24C01A KC2024 02 07.04413805 07 06.61 +35 09 52.9                VEC069H21
     K24C01A KC2024 02 07.04553605 07 07.65 +35 10 00.9                VEC069H21
     K24C01A KC2024 02 07.05392605 07 14.02 +35 10 47.8                VEC069H21

Observer details:
033 Karl Schwarzschild Observatory, Tautenburg.  Observers S. Melnikov, C.
    Hogner, F. Ludwig, M. Hartmann, B. Stecklum.  Measurer B. Stecklum.
    1.34-m f/3 Schmidt + CCD.
H21 Astronomical Research Observatory, Westfield.  Observer R. Holmes.
    Measurers T. Linder, R. Holmes, L. Horn.  0.76-m f/3.0 astrograph + CCD.
V00 Kitt Peak-Bok.  Observer K. W. Wierzchos.  Measurers M. J. Brucker, C. E.
    Woodward, D. Fay, J. B. Fazekas, D. C. Fuls, A. R. Gibbs, H. Groeller, J.
    K. Hogan, R. A. Kowalski, S. M. Larson, C. Lejoly, G. J. Leonard, R. A.
    Mastaler, R. S. McMillan, D. Rankin, R. L. Seaman, A. Serrano, F. C.
    Shelly, K. W. Wierzchos.  2.25-m reflector + 4x4K mosaic CCD.
V06 Catalina Sky Survey-Kuiper.  Observer H. Groeller.  Measurers T. Beuden,
    V. F. Carvajal, D. Fay, J. B. Fazekas, D. C. Fuls, A. R. Gibbs, A. D.
    Grauer, H. Groeller, J. K. Hogan, R. A. Kowalski, S. M. Larson, G. J.
    Leonard, D. Rankin, R. L. Seaman, F. C. Shelly, K. W. Wierzchos.  1.55-m
    reflector + 1K CCD.

Orbital elements:
2024 CA1                                                 Earth MOID = 0.0268 AU
Epoch 2023 Sept. 13.0 TT = JDT 2460200.5                MPC                     
M 314.50367              (2000.0)            P               Q                  
n   0.37706067     Peri.  338.82709     -0.20857603     -0.97201829             
a   1.8975587      Node   123.06384     +0.91480977     -0.23297653             
e   0.4745735      Incl.    7.40820     +0.34585997     +0.03003958             
P   2.61           H   24.14          G   0.15           U   8                  
Residuals in seconds of arc
240205 V00  0.1-  0.0     240205 V06  0.2-  0.1-    240206 H21  0.0   0.1+
240205 V00  0.2+  0.0     240205 V06  0.1-  0.1-    240206 H21  0.1+  0.0
240205 V00  0.1-  0.1-    240205 033  0.3-  0.0     240207 H21  0.3+  0.7-
240205 V00  0.2+  0.2+    240205 033  0.5-  0.1-    240207 H21  0.0   0.5-
240205 V06  0.0   0.1-    240205 033  0.6-  0.1+    240207 H21  0.3+  0.6-
240205 V06  0.1-  0.2-    240206 H21  0.2-  0.4+

Ephemeris:
2024 CA1                 a,e,i = 1.90, 0.47, 7                   q = 0.9970
Date    TT    R. A. (2000) Decl.     Delta      r    Elong.  Phase     V
2024 01 08    01 32 11.7 -11 07 48   0.1682  0.9980    90.1    80.2    23.1
...
2024 01 23    02 39 06.3 +06 44 36   0.1182  1.0061    97.3    76.0    22.2
...
2024 01 31    03 44 20.5 +22 00 41   0.1039  1.0229   108.6    65.9    21.6
...
2024 02 06    04 53 30.6 +33 29 15   0.1046  1.0408   119.0    55.9    21.4
2024 02 07    05 06 30.0 +35 05 51   0.1059  1.0442   120.7    54.3    21.3
2024 02 08    05 19 45.6 +36 34 41   0.1074  1.0477   122.3    52.7    21.3
...
2024 02 14    06 40 03.4 +42 27 04   0.1225  1.0708   130.4    44.6    21.4
...
2024 02 22    08 08 20.9 +43 40 48   0.1553  1.1070   136.6    37.8    21.8
...
2024 03 08    09 38 31.2 +38 49 41   0.2422  1.1878   139.7    32.7    22.8

A. U. Tomatic                (C) Copyright 2024 MPC           M.P.E.C. 2024-C69





More information about the Iaude mailing list